EW8956 Weather Reports


time (UTC)temp
F
wind
direction
speed
knots
gust
knots
rain 1hr
in
rain 24hr
in
rain mn
in
humidity
%
barometer
mb
20260508134553 60 0 0.0 1.7 0.00 0.27 0.01 51 1018.7
20260508133055 58 0 0.0 0.9 0.00 0.27 0.01 63 1018.6
20260508131550 57 0 0.0 0.9 0.00 0.27 0.01 72 1018.4
20260508130100 54 0 0.0 0.9 0.00 0.27 0.01 82 1018.4
20260508124553 52 0 0.0 0.9 0.00 0.35 0.01 81 1018.4
20260508123057 50 0 0.0 0.9 0.00 0.35 0.01 90 1018.3
20260508121544 48 0 0.0 0.9 0.00 0.35 0.01 94 1018.2
20260508120049 46 0 0.0 0.9 0.00 0.35 0.01 94 1017.9
20260508114548 46 0 0.0 0.0 0.00 0.36 0.01 95 1017.8
20260508113043 45 0 0.0 0.9 0.00 0.36 0.01 95 1017.8
20260508111544 44 0 0.0 0.0 0.00 0.36 0.01 94 1017.6
20260508110048 43 0 0.0 0.0 0.00 0.36 0.01 94 1017.3
20260508104558 43 0 0.0 0.9 0.00 0.37 0.01 94 1017.1
20260508103051 44 0 0.0 0.9 0.00 0.37 0.01 94 1017.0
20260508101547 44 0 0.0 0.0 0.00 0.37 0.01 94 1016.8
20260508100051 44 0 0.0 0.9 0.00 0.37 0.01 94 1016.6
20260508094550 44 0 0.0 0.0 0.00 0.38 0.01 94 1016.1
20260508093045 44 0 0.0 0.9 0.00 0.38 0.01 94 1016.3
20260508091558 45 0 0.0 0.9 0.00 0.38 0.01 94 1016.2
20260508084552 45 0 0.0 0.9 0.00 0.38 0.01 94 1015.9
20260508083049 45 0 0.0 0.0 0.00 0.38 0.01 94 1015.7
20260508081552 45 0 0.0 0.0 0.00 0.38 0.01 94 1015.7
20260508074548 46 0 0.0 0.0 0.00 0.39 0.01 94 1015.6
20260508073059 46 0 0.0 0.0 0.00 0.39 0.01 94 1015.4
20260508071559 47 0 0.0 0.0 0.00 0.39 0.01 94 1015.1
20260508070100 47 0 0.0 0.0 0.00 0.39 0.01 94 1015.1
20260508064548 47 0 0.0 0.0 0.00 0.39 0.01 94 1015.1
20260508063053 47 0 0.0 0.0 0.00 0.39 0.01 93 1015.1
20260508061551 48 0 0.0 0.0 0.01 0.39 0.01 93 1015.1
20260508060049 48 0 0.0 0.0 0.01 0.39 0.01 93 1015.2
20260508054549 48 0 0.0 0.0 0.01 0.42 0.01 93 1014.9
20260508053050 49 0 0.0 0.0 0.01 0.42 0.01 93 1014.9
20260508051542 49 0 0.0 0.0 0.00 0.41 0.00 93 1015.1
20260508050049 49 0 0.0 0.0 0.00 0.41 0.00 93 1014.8
20260508044548 50 0 0.0 0.9 0.00 0.41 0.00 93 1014.7
20260508043048 50 0 0.0 0.0 0.00 0.41 0.00 93 1014.6
20260508041547 51 0 0.0 0.0 0.00 0.41 0.00 93 1014.4
20260508040057 51 0 0.0 0.9 0.00 0.41 0.00 94 1014.4
20260508034548 52 0 0.0 0.0 0.00 0.45 0.41 93 1014.3
20260508033109 52 0 0.0 0.9 0.00 0.45 0.41 93 1014.5
20260508031558 52 0 0.0 0.0 0.00 0.45 0.41 94 1013.9
20260508030103 52 0 0.0 0.0 0.00 0.45 0.41 93 1014.0
20260508024613 53 0 0.0 0.9 0.00 0.46 0.41 93 1014.0
20260508023049 53 0 0.0 0.9 0.00 0.46 0.41 93 1013.7
20260508021552 53 0 0.0 0.0 0.00 0.46 0.41 92 1013.6
20260508020105 54 0 0.0 0.0 0.00 0.46 0.41 92 1013.4
20260508014606 54 0 0.0 0.9 0.00 0.47 0.41 92 1012.9
20260508013101 55 0 0.0 0.9 0.00 0.47 0.41 91 1012.7
20260508011554 55 0 0.0 0.9 0.00 0.47 0.41 91 1012.3
20260508010104 56 0 0.0 0.0 0.00 0.47 0.41 91 1012.0
20260508004549 56 0 0.0 0.9 0.00 0.47 0.41 91 1012.1
20260508003053 57 0 0.0 0.9 0.00 0.47 0.41 91 1012.1
20260508001555 57 0 0.0 0.0 0.00 0.47 0.41 90 1012.1
20260508000055 57 0 0.0 0.9 0.00 0.47 0.41 90 1012.1
20260507234549 57 0 0.0 1.7 0.00 0.47 0.41 89 1011.9
20260507233051 57 0 0.0 0.9 0.00 0.47 0.41 89 1011.5
20260507231552 57 0 0.0 2.6 0.00 0.47 0.41 89 1011.4
20260507230055 57 0 0.0 3.5 0.00 0.47 0.41 90 1011.1
20260507224552 57 0 0.0 2.6 0.00 0.47 0.41 90 1010.9
20260507223043 57 0 0.0 2.6 0.00 0.47 0.41 90 1010.8
20260507221550 57 0 0.9 4.3 0.00 0.47 0.41 89 1010.9
20260507220049 57 61 0.9 7.0 0.00 0.47 0.41 90 1010.5
20260507214550 57 71 0.0 1.7 0.00 0.47 0.41 92 1010.5
20260507213055 57 64 0.0 7.0 0.00 0.47 0.41 91 1010.6
20260507211553 57 133 0.0 6.1 0.00 0.47 0.41 91 1010.4
20260507210056 58 0 0.0 1.7 0.11 0.47 0.41 91 1010.4
20260507204554 57 9 0.0 1.7 0.17 0.47 0.41 91 1010.6
20260507203050 58 0 0.0 2.6 0.17 0.47 0.41 93 1010.1
20260507201553 57 30 0.0 1.7 0.17 0.47 0.41 91 1010.5
20260507200050 57 30 0.0 3.5 0.06 0.36 0.30 88 1010.6
20260507194550 58 344 0.0 2.6 0.00 0.30 0.24 87 1010.2
20260507193055 59 0 0.0 6.1 0.00 0.30 0.24 87 1010.1
20260507191551 59 344 0.0 6.1 0.00 0.30 0.24 88 1009.8
20260507190044 59 5 0.0 5.2 0.00 0.30 0.24 88 1010.0
20260507184549 59 0 0.9 6.1 0.00 0.30 0.24 89 1010.1
20260507183104 59 0 0.0 3.5 0.00 0.30 0.24 89 1010.4
20260507181555 60 0 0.0 9.6 0.00 0.30 0.24 89 1010.3
20260507180054 61 57 0.0 2.6 0.00 0.30 0.24 90 1009.8
20260507174545 61 0 0.0 1.7 0.00 0.30 0.24 89 1010.2
20260507173056 62 0 0.0 2.6 0.00 0.30 0.24 88 1010.4
20260507171553 63 0 0.0 1.7 0.00 0.30 0.24 89 1010.3
20260507170053 64 0 0.0 3.5 0.00 0.30 0.24 88 1010.3
20260507164550 64 0 0.0 7.0 0.00 0.30 0.24 87 1010.0
20260507163057 66 324 0.9 1.7 0.00 0.30 0.24 87 1009.5
20260507161557 68 147 0.0 0.9 0.00 0.30 0.24 92 1009.5
20260507160053 65 0 0.0 0.9 0.00 0.30 0.24 94 1009.9
20260507154551 64 0 0.0 0.9 0.01 0.30 0.24 94 1010.3
20260507153058 64 0 0.0 2.6 0.01 0.30 0.24 94 1010.8
20260507151548 64 0 0.0 0.9 0.02 0.30 0.24 94 1010.7
20260507150048 64 0 0.0 0.9 0.02 0.30 0.24 94 1011.1
20260507144550 64 0 0.0 1.7 0.02 0.29 0.23 94 1010.3
20260507143059 64 0 0.0 0.9 0.03 0.29 0.23 94 1010.4
20260507141550 64 0 0.0 2.6 0.04 0.28 0.22 94 1010.4
20260507140044 63 0 0.0 1.7 0.07 0.28 0.22 94 1010.6